Location: Lake Sonoma
(38.7200°N, 123.0564°W)
Time: 03:11:57
(UTC-08:00)

ISS - Visible Passes

Search period start: 02 March 2015 00:00
Search period end: 12 March 2015 01:00
Orbit: 397 x 407 km, 51.6° (Epoch: 02 March)

Date Brightness Start Highest point End Pass type
(mag) Time Alt. Az. Time Alt. Az. Time Alt. Az.
09 Mar -1.1 06:32:48 10° S 06:35:28 24° SE 06:38:11 10° ENE visible
10 Mar -0.4 05:41:09 10° SSE 05:42:26 12° SE 05:43:50 10° ESE visible
11 Mar -3.0 06:23:03 18° SW 06:25:19 62° SE 06:28:31 10° ENE visible
